Tracking 19476 objects as of 17-Jan-2019
HD Live streaming from Space Station
objects crossing your sky now

COSMOS 1656

Track COSMOS 1656 now!
10-day predictions
COSMOS 1656 is classified as:


NORAD ID: 15755
Int'l Code: 1985-042A
Perigee: 804.2 km
Apogee: 857.9 km
Inclination: 71.1 °
Period: 101.4 minutes
Semi major axis: 7202 km
RCS: 12.8435 m2 (large)
Launch date: May 30, 1985
Source: Commonwealth of Independent States (former USSR) (CIS)
Launch site: TYURATAM MISSILE AND SPACE COMPLEX (TTMTR)
aabbcc
Your satellite tracking list
Your tracking list is empty




NASA's NSSDC Master Catalog

Two Line Element Set (TLE):
1 15755U 85042A   19016.93025265 -.00000081 +00000-0 -15420-4 0  9998
2 15755 071.1098 223.8773 0037251 234.4164 125.3489 14.20432449742609
Source of the keplerian elements: AFSPC